Temperature
18 18 18 19 19 18 17 16 16 16 16 15 15 14 15 16 16 17 17 18 18 18 18 18 18 18 18 18 18 17 17 17 17 16 16 15 15 15 14 14 14 14 14 14
18 18 18 18 18 17 17 16 16 15 15 15 15 15 15 15 16 16 16 17 17 17 18 18 18 18 18 18 18 17 17 17 17 16 16 16 15 15 15 14 14 14 14 14
16 16 18 17 17 17 16 15 15 15 15 14 14 14 14 15 15 15 16 16 17 17 17 17 17 17 18 18 18 17 17 17 16 16 16 16 15 15 15 15 14 14 14 14
14 17 18 16 16 16 15 14 14 15 14 14 15 15 15 15 15 15 16 16 16 17 17 17 17 17 17 17 17 17 17 16 16 16 16 16 15 15 15 15 14 14 14 14
13 15 16 16 16 15 15 15 14 14 14 15 15 15 15 15 15 15 15 15 15 16 16 16 16 17 17 17 16 16 16 16 16 16 16 16 15 15 15 15 15 14 14 14
12 16 16 16 16 16 15 14 14 14 14 14 14 12 13 14 14 15 15 15 15 15 15 16 16 16 16 16 16 16 16 16 16 16 16 15 15 15 15 15 15 14 14 14
12 14 14 14 14 15 15 14 14 14 14 14 13 12 14 14 14 14 14 14 15 15 15 15 15 15 15 15 15 15 15 15 15 15 15 15 15 15 15 15 15 14 14 14
11 13 14 14 14 13 13 14 14 14 14 14 14 13 13 14 14 14 14 14 14 14 14 14 14 14 14 14 14 15 15 15 15 15 15 15 15 15 15 15 14 14 14 14
11 12 13 13 13 14 14 14 14 14 14 14 13 13 13 13 13 13 13 13 13 13 13 13 13 13 13 14 14 14 14 14 15 14 14 14 14 14 14 14 14 14 14 14
10 11 12 13 13 14 14 14 14 13 13 13 13 13 12 12 12 12 12 12 12 12 12 12 13 13 13 13 13 13 14 14 14 14 14 14 14 14 14 14 14 14 14 14
10 10 12 13 13 13 13 13 13 13 13 12 12 12 12 11 11 11 11 11 11 11 11 11 12 12 12 12 12 12 13 13 13 13 13 13 13 14 14 14 13 13 14 14
10 12 11 12 13 13 13 13 12 12 12 12 11 11 11 11 10 10 10 10 10 10 10 10 11 11 11 11 11 11 12 12 12 12 13 13 13 13 13 13 13 13 13 13
13 13 13 13 12 12 12 12 12 12 11 11 11 10 10 10 10 10 10 10 9 9 9 10 10 10 10 10 10 10 11 11 11 11 12 12 12 12 12 13 13 13 13 13
13 12 12 12 12 12 12 11 11 11 11 10 10 10 10 10 9 9 9 9 9 9 9 9 9 9 9 9 9 10 10 10 10 10 11 11 11 11 11 11 12 13 13 12
12 12 12 12 11 11 11 11 11 10 10 10 10 9 9 9 9 9 9 8 8 8 8 8 8 8 8 9 9 9 9 9 9 9 10 10 10 10 10 11 11 11 12 12
12 11 11 11 11 11 10 10 10 10 10 9 9 9 9 8 8 8 8 8 8 8 8 8 8 8 8 8 8 8 8 8 8 9 9 9 9 9 10 10 10 10 11 11
11 11 11 10 10 10 10 10 10 9 9 9 9 8 8 8 8 8 8 7 7 7 7 7 7 7 7 7 7 7 7 8 8 8 8 8 8 9 9 9 10 10 10 11
11 11 11 11 10 10 10 9 9 9 9 9 8 8 8 8 7 7 7 7 7 7 7 7 7 7 7 7 7 6 7 7 7 7 8 8 8 8 8 9 9 9 10 10
11 10 10 10 10 10 9 9 9 9 8 8 8 8 7 7 7 7 7 7 6 6 7 6 6 6 6 6 6 6 6 6 6 7 7 7 7 7 8 8 8 8 9 9
10 10 10 9 9 9 9 9 8 8 8 8 7 7 7 7 7 6 6 6 6 6 6 6 6 6 6 6 6 6 6 6 6 6 6 6 7 7 7 7 8 8 8 8
10 9 9 9 9 9 8 8 8 8 8 7 7 7 7 7 6 6 6 6 6 6 6 5 5 5 5 5 5 5 5 5 5 5 5 6 6 6 6 7 7 7 8 8
9 9 8 8 8 8 8 8 7 7 7 7 7 7 6 6 6 6 6 5 5 5 5 5 5 5 5 5 5 5 5 5 5 5 5 5 5 6 6 6 6 7 7 8
8 8 8 8 8 8 7 7 7 7 7 7 6 6 6 6 6 5 5 5 5 5 5 5 5 5 4 4 4 4 4 4 4 4 5 5 5 5 5 6 6 6 6 7
8 8 8 7 7 7 7 7 7 6 6 6 6 6 6 5 5 5 5 5 5 5 5 5 4 4 4 4 4 4 4 4 4 4 4 5 5 5 5 5 6 6 6 6
7 7 7 7 7 7 6 6 6 6 6 6 6 6 5 5 5 5 5 5 5 5 4 4 4 4 4 4 4 4 4 4 4 4 4 4 4 5 5 5 5 5 5 6
7 7 7 6 6 6 6 6 6 6 5 5 5 5 5 5 5 5 5 5 4 4 4 4 4 4 4 4 4 4 4 4 4 4 4 4 4 4 5 5 5 5 5 5
6 6 6 6 6 6 6 5 5 5 5 5 5 5 5 5 4 4 4 4 4 4 4 4 4 4 3 3 3 3 4 4 3 4 4 4 4 4 4 5 5 5 5 5
Wind_Speed
2 1 1 1 1 2 4 6 6 4 2 4 7 7 7 8 9 11 11 11 9 8 6 5 5 4 4 5 5 5 6 7 9 8 7 6 6 6 5 5 5 5 4 4
2 2 1 1 3 0 1 2 2 2 1 3 4 4 7 10 11 11 10 11 10 9 8 7 6 5 4 4 4 4 6 7 7 6 6 7 7 6 5 5 5 4 5 5
2 5 3 2 3 1 3 1 3 3 3 2 3 6 7 8 9 9 9 10 10 9 8 7 6 5 5 5 3 4 6 6 6 6 7 8 7 6 7 6 5 5 5 5
1 3 1 3 2 4 5 4 3 1 1 1 1 0 3 6 8 9 10 10 10 10 9 8 6 5 4 3 2 3 5 5 5 6 7 7 7 8 8 6 6 6 6 6
3 1 3 2 1 1 2 1 3 2 3 3 3 2 5 7 7 7 8 8 8 8 8 8 7 6 4 3 2 3 5 5 6 6 7 7 8 9 7 6 6 6 5 6
4 3 4 4 4 3 4 0 3 1 2 3 3 4 5 8 8 8 9 8 9 9 8 9 8 5 4 4 4 5 7 7 6 6 7 8 9 8 6 6 8 7 6 6
4 3 5 4 5 2 3 5 2 1 1 1 1 3 5 7 7 7 8 9 9 9 9 9 9 5 5 5 6 8 7 6 5 5 7 7 7 6 6 7 6 6 6 6
4 3 6 2 2 3 4 1 1 0 1 0 1 3 4 6 7 9 9 10 10 9 9 9 8 7 7 8 9 7 6 6 6 6 6 5 5 5 6 7 7 7 6 5
6 5 2 1 1 1 2 1 1 1 1 1 1 3 4 5 7 8 9 9 9 9 10 10 8 7 9 10 9 7 6 6 6 6 5 5 5 5 4 6 7 7 7 7
2 3 2 1 0 1 1 1 1 1 1 0 1 2 4 5 6 7 8 9 9 9 11 12 10 9 9 10 9 7 7 7 6 5 5 5 5 5 5 7 8 8 8 8
3 4 2 2 1 1 1 1 1 0 0 0 0 2 3 4 6 6 7 8 8 9 10 12 12 11 11 10 8 8 8 7 6 6 6 6 6 6 7 8 9 10 10 9
7 7 6 5 4 2 1 2 2 1 1 1 1 2 3 4 5 6 7 8 8 9 10 11 12 12 12 10 8 8 8 7 6 6 6 5 5 6 8 8 12 14 13 12
5 3 4 4 3 2 3 3 3 2 2 2 2 3 3 4 5 6 7 8 9 10 10 11 12 12 12 11 9 9 9 9 7 6 6 6 6 6 7 7 8 11 13 15
3 3 2 3 4 3 3 3 2 2 2 3 3 4 4 5 6 8 9 9 9 10 10 11 11 12 12 11 10 10 10 11 10 7 7 7 7 7 7 7 6 6 8 13
4 5 5 4 3 3 2 1 1 2 3 4 4 4 5 6 8 9 10 10 9 10 11 11 11 12 12 11 11 11 10 8 8 7 7 7 7 7 7 8 7 6 4 6
4 2 3 3 4 4 3 3 4 5 5 5 5 6 7 7 8 10 10 9 9 11 11 11 12 13 12 11 11 10 9 15 13 8 7 7 7 7 8 8 8 7 8 7
5 4 4 4 5 5 5 6 6 7 6 7 7 7 7 8 8 10 11 10 10 11 11 11 12 13 12 11 11 10 9 11 15 11 8 8 8 9 9 9 9 9 9 9
8 8 7 7 7 7 7 7 7 7 7 8 8 7 7 8 9 11 12 11 11 11 11 11 11 12 12 11 10 9 9 9 9 9 9 9 9 9 9 9 10 10 8 8
5 6 6 6 7 7 7 7 8 8 8 7 7 8 9 9 10 11 11 10 11 12 12 11 17 13 12 13 15 9 9 10 10 10 9 11 11 9 9 9 10 9 8 8
4 5 5 6 6 6 7 7 7 7 8 7 7 8 10 10 10 10 10 10 9 10 12 14 13 12 12 12 16 9 10 11 11 11 10 10 10 10 10 10 10 9 9 9
5 5 6 6 6 7 7 7 7 8 9 8 8 9 10 11 10 9 9 10 11 12 12 17 12 10 10 13 16 10 10 11 11 11 10 10 10 10 10 10 10 10 10 9
5 6 6 6 6 7 7 7 7 9 9 9 9 9 9 10 11 10 10 10 12 16 12 9 9 14 16 18 10 10 11 11 11 10 10 10 10 10 10 10 10 10 9 9
6 6 7 7 8 8 8 7 8 8 9 10 10 10 10 10 8 8 11 9 9 16 13 10 15 22 24 14 9 10 11 11 11 11 10 10 10 10 10 10 9 9 8 8
7 7 7 7 6 6 8 9 9 8 9 9 9 10 9 9 8 8 9 14 17 19 12 14 21 23 21 10 9 10 10 10 10 10 10 9 9 9 8 8 8 7 7 8
7 7 7 6 7 8 9 9 8 8 9 8 9 10 9 7 8 10 9 11 16 17 11 15 21 22 14 9 10 10 10 9 10 9 8 8 8 8 7 7 6 6 6 7
7 7 7 8 8 8 7 6 7 7 7 8 8 8 8 7 8 9 9 10 13 16 12 10 11 13 10 10 10 10 9 9 10 8 8 8 8 7 6 5 6 5 5 6
7 7 6 6 7 7 6 6 7 8 8 8 9 8 8 8 8 9 10 10 10 9 9 9 9 9 9 9 9 9 8 7 7 7 7 6 6 5 4 4 4 4 4 5
Wind_Direction
217 252 214 241 270 167 168 180 183 223 214 315 329 337 342 350 1 12 9 4 358 348 338 334 329 307 278 260 239 221 214 219 227 226 220 219 220 221 219 217 223 221 219 224
3 19 17 7 338 357 149 147 159 116 350 321 331 3 11 10 13 10 1 354 348 344 341 336 324 312 297 276 252 217 218 229 231 223 218 217 218 217 215 218 221 215 218 221
294 318 20 343 321 121 103 77 136 163 237 309 7 26 17 9 11 3 352 346 343 338 329 319 313 301 291 278 258 223 228 235 230 223 223 223 219 212 213 217 214 215 222 220
78 37 218 247 7 112 107 67 54 67 342 319 286 90 34 20 7 357 350 345 340 336 331 322 317 316 303 303 276 246 245 248 240 229 230 226 216 218 220 213 209 217 223 221
109 127 292 303 359 128 126 60 16 33 360 343 326 11 7 5 359 346 338 332 328 326 324 326 327 323 323 314 297 279 267 262 252 237 233 227 223 225 222 212 214 214 214 212
120 155 232 253 298 299 117 257 318 10 347 349 37 15 322 334 342 345 344 340 337 335 340 343 334 330 330 312 302 284 273 265 257 244 235 232 230 226 219 213 218 212 214 212
151 204 255 274 302 74 138 250 268 239 299 14 120 228 280 320 338 342 343 342 343 344 346 339 334 332 318 308 290 282 280 271 260 248 244 240 234 228 215 209 207 208 213 216
147 185 245 308 69 143 217 236 193 231 302 350 271 303 328 342 343 345 347 346 346 345 338 334 338 335 317 302 294 297 290 273 262 252 250 254 239 232 214 201 202 209 213 220
187 205 231 291 205 244 175 176 220 211 278 289 320 331 336 341 342 342 340 338 338 337 333 334 334 333 317 305 305 304 293 280 272 262 248 241 232 232 224 206 209 212 210 218
228 250 254 307 5 7 105 177 225 215 234 305 321 328 339 338 336 336 334 332 333 336 336 332 330 325 313 311 309 301 292 286 281 267 261 251 239 227 224 217 215 215 214 218
236 257 296 282 249 257 13 40 49 19 283 199 55 331 325 325 323 324 325 324 327 329 326 322 323 322 319 317 313 302 294 289 285 272 260 252 245 237 234 232 224 217 219 212
217 214 194 225 231 214 198 238 238 215 341 337 321 293 309 308 306 311 316 317 320 320 320 318 321 321 320 316 311 302 298 291 283 277 272 261 257 273 262 252 247 235 224 212
211 200 190 213 212 203 204 220 228 215 215 270 288 285 296 297 298 304 310 314 313 312 312 313 316 317 318 317 311 301 291 287 284 274 269 263 255 252 269 281 264 241 230 218
196 146 171 202 214 222 220 226 221 227 242 248 263 279 291 295 300 306 306 303 303 306 308 309 311 311 312 315 310 303 297 290 286 270 265 260 254 251 249 249 260 263 239 223
208 191 197 209 212 226 229 219 235 268 273 279 279 285 291 295 299 299 298 299 302 305 307 309 310 308 309 311 308 304 302 296 284 272 264 260 257 253 250 245 247 254 250 227
202 200 197 205 220 231 234 232 238 250 259 266 276 280 282 283 288 293 297 300 301 301 302 304 303 303 307 307 306 303 301 301 301 287 274 267 259 251 248 245 245 243 235 223
182 215 221 229 235 241 237 236 236 243 253 262 268 277 286 292 296 298 299 297 291 288 290 292 294 300 303 302 301 300 298 300 299 294 279 269 261 253 248 244 242 243 241 223
206 213 218 219 225 239 248 249 248 250 254 259 269 277 283 286 288 290 293 297 299 297 291 286 289 297 299 300 300 294 292 293 289 284 282 275 266 256 249 246 242 242 247 228
217 221 229 230 229 229 236 247 251 252 258 262 265 271 275 278 280 285 292 297 299 300 296 291 302 306 298 300 306 293 290 291 290 284 280 278 275 262 250 245 244 240 237 225
228 229 232 238 240 238 245 253 256 260 261 259 265 273 279 281 282 287 290 288 282 278 283 292 297 293 293 296 304 294 290 288 288 285 281 275 271 265 256 248 242 239 236 228
238 243 244 247 254 255 253 253 256 262 267 264 262 268 274 280 283 285 287 292 289 285 288 295 296 291 294 297 302 295 290 288 287 284 279 275 272 266 259 252 244 237 234 229
238 242 250 253 256 266 269 262 258 262 268 269 269 271 276 281 284 284 275 273 281 291 296 288 287 293 300 303 297 293 290 288 287 283 278 274 271 266 259 253 246 241 233 223
243 246 251 252 252 260 272 271 263 262 264 266 268 271 273 274 275 277 287 283 281 292 299 288 293 300 304 305 295 292 290 288 286 282 278 273 270 265 258 252 246 240 229 221
248 249 250 254 256 262 269 271 269 267 265 267 266 266 269 275 279 270 266 284 294 296 294 291 299 304 308 302 294 291 290 288 285 282 279 276 271 266 259 252 247 238 225 212
249 251 255 258 258 260 262 269 275 273 271 271 271 271 267 257 261 276 280 282 289 296 293 297 303 307 307 294 292 290 288 284 284 284 280 279 275 269 262 252 240 227 216 204
246 248 250 247 248 257 262 263 265 270 272 275 278 277 276 273 269 275 280 281 282 292 294 291 295 299 296 292 290 289 288 289 289 288 286 283 279 272 262 249 232 220 207 195
249 249 252 260 261 254 254 255 261 267 268 267 274 280 279 280 281 282 283 285 287 288 289 290 291 292 292 293 292 288 287 286 287 287 287 285 283 275 262 245 226 210 194 179
Height
1509 1508 1508 1509 1509 1511 1514 1519 1525 1521 1521 1517 1514 1511 1508 1504 1501 1497 1495 1493 1492 1491 1489 1488 1487 1486 1486 1486 1487 1488 1488 1489 1489 1490 1491 1491 1492 1492 1493 1493 1493 1493 1493 1493
1511 1509 1509 1510 1510 1510 1512 1515 1517 1519 1520 1515 1513 1511 1507 1505 1502 1499 1497 1495 1493 1491 1489 1487 1486 1484 1484 1483 1484 1484 1485 1485 1486 1486 1487 1487 1488 1489 1489 1489 1489 1489 1489 1489
1520 1515 1510 1517 1513 1512 1514 1514 1515 1519 1518 1514 1513 1510 1509 1506 1504 1502 1500 1497 1495 1492 1489 1487 1485 1484 1482 1481 1481 1481 1481 1482 1482 1482 1483 1483 1484 1484 1485 1485 1485 1485 1486 1486
1524 1518 1523 1519 1510 1510 1513 1515 1514 1514 1514 1513 1512 1511 1510 1508 1506 1503 1501 1498 1495 1492 1489 1487 1484 1482 1481 1480 1479 1478 1478 1478 1478 1478 1478 1479 1479 1479 1480 1480 1481 1481 1481 1482
1529 1527 1523 1516 1510 1511 1513 1516 1514 1514 1513 1512 1510 1509 1509 1508 1507 1505 1502 1499 1496 1492 1489 1486 1483 1480 1479 1477 1476 1475 1474 1474 1474 1474 1474 1474 1474 1474 1475 1475 1475 1476 1476 1477
1529 1524 1526 1518 1509 1507 1511 1518 1513 1512 1512 1511 1510 1513 1512 1508 1506 1504 1501 1498 1495 1491 1488 1484 1481 1478 1477 1475 1473 1472 1471 1470 1470 1470 1469 1469 1469 1469 1470 1470 1470 1471 1471 1472
1527 1525 1521 1512 1508 1508 1520 1519 1512 1511 1511 1511 1511 1512 1511 1508 1505 1503 1500 1497 1494 1490 1487 1483 1480 1477 1475 1473 1471 1469 1468 1467 1466 1465 1464 1464 1464 1464 1464 1464 1464 1465 1465 1466
1527 1527 1523 1510 1508 1513 1514 1510 1510 1510 1510 1510 1510 1509 1508 1506 1503 1501 1498 1495 1492 1489 1485 1482 1479 1476 1472 1470 1468 1466 1464 1462 1461 1460 1459 1459 1458 1458 1458 1458 1458 1458 1459 1460
1517 1517 1511 1508 1508 1509 1509 1509 1509 1509 1509 1509 1508 1507 1505 1503 1501 1499 1497 1494 1490 1487 1483 1480 1477 1474 1470 1467 1464 1461 1459 1457 1455 1454 1454 1453 1452 1452 1451 1451 1451 1452 1453 1454
1512 1509 1507 1507 1507 1508 1508 1508 1508 1508 1508 1507 1506 1505 1503 1501 1499 1497 1494 1491 1488 1484 1480 1477 1474 1471 1467 1463 1460 1457 1454 1452 1450 1448 1447 1446 1446 1446 1445 1445 1445 1445 1446 1447
1510 1507 1506 1506 1506 1506 1506 1506 1506 1506 1505 1505 1504 1502 1501 1499 1497 1494 1491 1488 1485 1482 1478 1474 1470 1467 1463 1459 1456 1452 1449 1447 1445 1443 1441 1440 1439 1439 1438 1438 1439 1439 1439 1441
1505 1501 1502 1503 1503 1504 1504 1504 1504 1503 1503 1502 1501 1500 1498 1496 1494 1491 1488 1485 1481 1478 1474 1470 1466 1463 1459 1455 1451 1448 1444 1442 1439 1437 1435 1434 1432 1431 1431 1432 1432 1432 1433 1435
1496 1497 1498 1499 1500 1501 1501 1501 1501 1501 1500 1499 1498 1497 1495 1493 1490 1488 1485 1481 1477 1474 1470 1466 1462 1458 1454 1450 1446 1443 1439 1436 1433 1431 1429 1427 1426 1424 1423 1423 1423 1424 1425 1427
1494 1495 1496 1496 1497 1498 1498 1498 1498 1497 1497 1496 1494 1493 1491 1488 1486 1483 1480 1477 1473 1469 1465 1461 1457 1453 1449 1445 1441 1437 1433 1430 1427 1424 1422 1421 1419 1418 1417 1416 1415 1415 1417 1419
1491 1492 1492 1493 1494 1495 1495 1494 1494 1493 1492 1491 1490 1488 1486 1484 1481 1478 1475 1472 1468 1464 1460 1456 1452 1447 1444 1439 1435 1431 1427 1423 1420 1417 1415 1413 1412 1411 1410 1409 1408 1408 1409 1410
1487 1488 1489 1490 1490 1490 1490 1490 1489 1488 1488 1486 1485 1483 1481 1479 1476 1473 1470 1466 1463 1458 1454 1450 1446 1442 1438 1433 1429 1424 1420 1417 1414 1411 1408 1406 1404 1403 1402 1401 1400 1400 1401 1402
1483 1484 1485 1485 1485 1485 1485 1485 1485 1484 1483 1481 1480 1478 1476 1473 1470 1467 1464 1460 1457 1453 1449 1445 1440 1436 1432 1427 1423 1418 1414 1410 1407 1404 1401 1398 1396 1395 1394 1393 1392 1392 1392 1394
1479 1480 1480 1481 1481 1481 1480 1480 1480 1479 1478 1476 1475 1472 1470 1467 1464 1461 1457 1454 1450 1446 1442 1438 1434 1429 1425 1421 1416 1411 1407 1403 1400 1396 1393 1391 1389 1387 1385 1384 1383 1383 1384 1386
1475 1476 1476 1477 1476 1476 1475 1475 1474 1473 1472 1470 1469 1466 1464 1461 1458 1454 1451 1447 1443 1438 1434 1431 1427 1422 1418 1414 1409 1405 1400 1396 1392 1389 1386 1383 1381 1378 1377 1376 1375 1375 1376 1377
1471 1471 1472 1472 1472 1471 1470 1470 1469 1467 1466 1464 1462 1460 1457 1454 1451 1448 1444 1440 1437 1433 1428 1423 1419 1415 1410 1406 1402 1397 1393 1389 1385 1381 1377 1375 1372 1370 1368 1367 1367 1367 1367 1368
1467 1467 1467 1466 1466 1466 1465 1464 1463 1461 1459 1458 1455 1453 1450 1447 1444 1441 1437 1432 1429 1426 1421 1416 1412 1407 1402 1398 1394 1390 1385 1381 1377 1373 1369 1366 1363 1361 1359 1358 1358 1358 1358 1360
1462 1462 1462 1461 1460 1460 1459 1458 1456 1455 1453 1451 1449 1446 1443 1440 1437 1433 1430 1426 1422 1418 1413 1409 1404 1400 1395 1391 1386 1382 1377 1373 1368 1364 1360 1357 1354 1352 1350 1349 1349 1349 1350 1351
1457 1457 1456 1455 1455 1453 1452 1451 1450 1448 1446 1443 1441 1439 1436 1433 1430 1426 1422 1418 1415 1411 1406 1401 1397 1392 1388 1383 1378 1373 1369 1364 1359 1355 1352 1349 1346 1344 1342 1341 1341 1341 1342 1343
1451 1451 1450 1449 1448 1447 1445 1444 1442 1440 1438 1436 1434 1432 1429 1426 1422 1419 1416 1411 1408 1404 1399 1394 1390 1385 1380 1375 1370 1365 1360 1355 1351 1347 1344 1341 1339 1336 1335 1334 1333 1333 1334 1336
1445 1444 1444 1443 1441 1440 1438 1437 1435 1433 1431 1428 1426 1425 1422 1419 1415 1411 1408 1404 1400 1396 1391 1387 1382 1378 1373 1367 1363 1358 1353 1348 1345 1341 1337 1334 1332 1330 1328 1327 1327 1327 1327 1329
1438 1438 1437 1436 1435 1433 1431 1429 1427 1425 1423 1421 1418 1416 1414 1411 1408 1405 1401 1397 1393 1389 1384 1380 1375 1370 1365 1361 1356 1351 1346 1342 1339 1335 1332 1329 1326 1324 1323 1321 1321 1322 1323 1325
1431 1430 1429 1428 1427 1426 1424 1422 1420 1418 1416 1414 1411 1409 1406 1404 1401 1397 1394 1390 1386 1382 1377 1373 1368 1364 1359 1355 1350 1345 1341 1337 1334 1330 1327 1324 1322 1320 1318 1317 1317 1318 1319 1321